Hourly Data Report for December 07, 2004

TORONTO CITY
ONTARIO

43°40'00.000" N
79°24'00.000" W
112.50 m
6158355
71508
XTO

Download Data

Hourly Data (December 2004)
Hourly Data Report for December 7, 2004
TIME
LST
Temp Definition
°C
Dew Point Definition
°C
Rel Hum Definition
%
Precip. Amount Definition
mm

Wind Dir Definition
10's deg

Wind Spd Definition
km/h
Visibility Definition
km
Stn Press Definition
kPa
Hmdx Definition


Wind Chill Definition


Weather Definition


00:00 -1.5 -1.8 98   LegendMM LegendMM LegendMM 100.43     LegendNANA
01:00 -1.3 -1.5 99   LegendMM LegendMM LegendMM 100.38     LegendNANA
02:00 -1.5 -1.7 99   LegendMM LegendMM LegendMM 100.35     LegendNANA
03:00 -1.5 -1.7 99   LegendMM LegendMM LegendMM 100.30     LegendNANA
04:00 -1.3 -1.4 99   LegendMM LegendMM LegendMM 100.22     LegendNANA
05:00 -1.5 -1.6 99   LegendMM LegendMM LegendMM 100.10     LegendNANA
06:00 -1.1 -1.2 99   LegendMM LegendMM LegendMM 100.10     LegendNANA
07:00 -0.6 -0.6 100   LegendMM LegendMM LegendMM 99.99     LegendNANA
08:00 -0.3 -0.3 100   LegendMM LegendMM LegendMM 99.85     LegendNANA
09:00 -0.1 -0.1 100   LegendMM LegendMM LegendMM 99.75     LegendNANA
10:00 0.6 0.6 100   LegendMM LegendMM LegendMM 99.59     LegendNANA
11:00 0.9 0.9 100   LegendMM LegendMM LegendMM 99.36     LegendNANA
12:00 1.8 1.8 100   LegendMM LegendMM LegendMM 98.95     LegendNANA
13:00 2.8 2.8 100   LegendMM LegendMM LegendMM 98.60     LegendNANA
14:00 4.4 4.4 100   LegendMM LegendMM LegendMM 98.31     LegendNANA
15:00 5.1 5.0 99   LegendMM LegendMM LegendMM 98.07     LegendNANA
16:00 5.8 5.8 100   LegendMM LegendMM LegendMM 97.91     LegendNANA
17:00 6.4 6.3 99   LegendMM LegendMM LegendMM 97.87     LegendNANA
18:00 7.6 7.4 99   LegendMM LegendMM LegendMM 97.83     LegendNANA
19:00 10.8 10.6 99   LegendMM LegendMM LegendMM 97.75     LegendNANA
20:00 10.6 8.8 89   LegendMM LegendMM LegendMM 97.76     LegendNANA
21:00 10.6 6.4 75   LegendMM LegendMM LegendMM 97.87     LegendNANA
22:00 8.5 4.0 73   LegendMM LegendMM LegendMM 98.06     LegendNANA
23:00 6.6 3.9 83   LegendMM LegendMM LegendMM 98.25     LegendNANA

Notes on Data Quality.

Legend

  • E = Estimated
  • M = Missing
  • NA = Not Available*
  • [empty] = Indicates an unobserved value
Date modified: